1500544800.48,87,20.88,74272.5,28.39,-2.71,-3.15,0,*71
1500544801.68,88,20.88,74274.0,28.33,-2.19,-2.71,0,*79
1500544802.92,89,20.88,74272.5,28.29,-2.03,-2.51,0,*7A
1500544804.11,90,20.88,74274.5,28.23,-2.59,-3.07,0,*75
1500544805.36,91,20.88,74274.3,28.17,-3.55,-4.01,0,*7F
1500544806.58,92,20.88,74272.0,28.13,-2.47,-2.87,0,*72
1500544807.8,93,20.88,74270.3,28.09,-3.35,-3.55,0,*72
1500544809.04,94,20.88,74272.8,28.01,-3.47,-3.75,0,*7A
1500544810.23,95,20.88,74272.0,27.95,-2.79,-3.07,0,*70
1500544811.45,96,20.88,74272.5,27.91,-2.39,-2.67,0,*74
1500544812.68,97,20.88,74274.5,27.87,-2.43,-2.67,0,*7F
1500544813.91,98,20.88,74272.0,27.83,-2.63,-2.87,0,*78
1500544815.13,99,20.88,74274.8,27.77,-3.43,-3.71,0,*79
1500544816.36,100,20.88,74272.8,27.73,-2.75,-2.63,0,*4A
1500544817.57,101,20.88,74274.3,27.69,-1.67,-1.83,0,*4D
1500544818.75,102,20.88,74274.5,27.65,-1.29,-1.29,0,*48
1500544819.99,103,20.88,74274.0,27.63,-1.17,-1.35,0,*4F
1500544821.2,104,20.88,74274.0,27.55,-1.59,-1.71,0,*47
1500544822.44,105,20.88,74274.3,27.55,-2.03,-2.15,0,*4B
1500544823.61,106,20.88,74276.3,27.49,-2.23,-2.19,0,*4B
1500544824.87,107,20.88,74274.3,27.47,-1.87,-2.07,0,*46
1500544826.1,108,20.88,74272.3,27.43,-1.75,-1.91,0,*4C
1500544827.37,109,20.88,74274.0,27.39,-2.47,-2.47,0,*4A
1500544828.55,110,20.88,74274.3,27.33,-4.33,-4.29,0,*43
1500544829.75,111,20.88,74270.8,27.29,-4.41,-4.49,0,*4A
1500544830.95,112,20.88,74274.3,27.21,-4.17,-4.17,0,*49
1500544832.16,113,20.88,74274.8,27.17,-4.33,-4.41,0,*48
1500544833.41,114,20.88,74272.3,27.09,-4.81,-4.93,0,*46
1500544834.64,115,20.88,74274.8,27.03,-4.89,-4.89,0,*4E
1500544835.91,116,20.88,74274.8,26.99,-5.23,-5.23,0,*4F
1500544837.11,117,20.88,74272.8,26.91,-5.43,-5.35,0,*47
1500544838.37,118,20.88,74276.5,26.83,-4.81,-4.81,0,*4A
1500544839.55,119,20.88,74272.0,26.77,-4.61,-4.61,0,*40
1500544840.76,120,20.88,74274.8,26.73,-6.23,-6.05,0,*4A
1500544841.96,121,20.88,74274.5,26.69,-6.23,-5.97,0,*48
1500544843.16,122,20.88,74272.5,26.63,-6.35,-6.31,0,*49
1500544844.39,123,20.88,74274.8,26.55,-5.73,-5.61,0,*4A
1500544845.64,124,20.88,74272.0,26.47,-5.07,-4.89,0,*4A
1500544846.85,125,20.88,74276.0,26.43,-5.97,-5.85,0,*4B
1500544848.06,126,20.88,74274.3,26.39,-4.99,-4.89,0,*47
1500544849.25,127,20.88,74274.3,26.35,-4.21,-3.91,0,*47
1500544850.47,128,20.88,74272.8,26.27,-5.19,-5.11,0,*4F
1500544851.73,129,20.88,74274.3,26.21,-5.85,-5.61,0,*4A
1500544852.95,130,20.88,74272.8,26.17,-5.81,-5.47,0,*47
1500544854.18,131,20.88,74272.0,26.13,-5.07,-4.99,0,*4E
1500544855.4,132,20.88,74272.5,26.09,-6.05,-5.73,0,*42
1500544856.59,133,20.88,74270.0,26.01,-6.47,-6.27,0,*4F
1500544857.84,134,20.88,74272.5,25.95,-4.85,-4.69,0,*42
1500544859.06,135,20.88,74272.0,25.95,-3.55,-3.19,0,*49
1500544860.26,136,20.88,74274.3,25.87,-3.23,-2.99,0,*41
1500544861.49,137,20.88,74272.0,25.87,-3.75,-3.51,0,*46
1500544862.67,138,20.88,74272.5,25.81,-3.07,-2.83,0,*44
1500544863.88,139,20.88,74274.8,25.81,-2.47,-2.23,0,*4A
1500544865.09,140,20.88,74272.3,25.77,-2.99,-2.75,0,*4D
1500544866.34,141,20.88,74270.3,25.75,-3.59,-3.55,0,*40
1500544867.57,142,20.88,74274.8,25.69,-4.17,-4.01,0,*45
1500544868.77,143,20.88,74272.8,25.65,-4.49,-4.21,0,*41
1500544869.95,144,20.94,74276.8,25.59,-4.13,-3.87,0,*4D
1500544871.13,145,20.88,74274.5,25.59,-4.41,-4.25,0,*44
1500544872.34,146,20.88,74272.3,25.55,-4.01,-3.83,0,*44
1500544873.52,147,20.94,74274.5,25.51,-4.05,-3.87,0,*41
1500544874.73,148,20.88,74272.0,25.47,-3.83,-3.71,0,*49
1500544875.94,149,20.88,74274.3,25.43,-3.75,-3.71,0,*45
1500544877.16,150,20.94,74278.5,25.37,-2.71,-2.59,0,*40
1500544878.37,151,20.88,74274.5,25.37,-2.55,-2.31,0,*49
1500544879.58,152,20.88,74274.0,25.33,-2.47,-2.31,0,*4D
1500544880.84,153,20.88,74270.8,25.31,-2.67,-2.51,0,*4A
1500544882.04,154,20.88,74272.5,25.29,-1.51,-1.39,0,*4F
1500544883.24,155,20.88,74272.0,25.29,0.37,0.25,0,*43
1500544884.45,156,20.94,74276.0,25.29,0.25,0.21,0,*47
1500544885.68,157,20.88,74272.8,25.31,0.67,0.55,0,*4A
1500544886.91,158,20.94,74276.3,25.31,1.43,1.43,0,*44
1500544888.14,159,20.94,74274.8,25.31,5.07,5.01,0,*43
1500544889.31,160,20.94,74276.8,25.37,5.99,5.99,0,*49
1500544890.5,161,20.94,74274.3,25.47,5.77,5.63,0,*4A
1500544891.74,162,20.94,74276.0,25.53,6.91,6.87,0,*4E
1500544892.92,163,20.88,74272.0,25.59,6.83,6.61,0,*4E
1500544894.14,164,20.88,74272.5,25.69,6.87,6.75,0,*4B
1500544895.33,165,20.88,74272.5,25.75,6.93,6.79,0,*4E
1500544896.55,166,20.88,74272.8,25.79,6.57,6.25,0,*40
1500544897.72,167,20.94,74276.8,25.81,5.23,4.89,0,*42
1500544898.92,168,20.94,74274.3,25.87,6.03,5.67,0,*4B
1500544900.13,169,20.88,74270.8,25.93,6.87,6.53,0,*47
1500544901.3,170,20.88,74272.3,25.97,7.79,7.45,0,*4D
1500544902.48,171,20.94,74276.5,26.01,7.01,6.91,0,*47
1500544903.69,172,20.88,74274.3,26.09,5.73,5.37,0,*44
1500544904.91,173,20.88,74274.0,26.11,6.87,6.43,0,*44
1500544906.12,174,20.94,74272.8,26.17,7.29,6.87,0,*48
1500544907.28,175,20.94,74272.8,26.19,6.75,6.21,0,*43
1500544908.5,176,20.88,74272.5,26.25,6.83,6.35,0,*43
1500544909.7,177,20.88,74272.3,26.27,6.69,6.17,0,*44
1500544910.91,178,20.88,74272.0,26.35,8.33,7.83,0,*45
1500544912.13,179,20.94,74274.5,26.41,7.33,6.69,0,*4D
1500544913.35,180,20.94,74274.0,26.45,7.79,7.11,0,*4F
1500544914.56,181,20.88,74270.3,26.51,9.03,8.37,0,*43
1500544915.74,182,20.88,74272.8,26.55,8.19,7.55,0,*45
1500544916.93,183,20.94,74272.8,26.61,7.97,7.37,0,*4E
1500544918.16,184,20.88,74272.3,26.67,8.71,7.95,0,*40
1500544919.37,185,20.94,74272.5,26.69,9.15,8.29,0,*44
1500544920.57,186,20.94,74272.5,26.77,9.11,8.27,0,*42
1500544921.75,187,20.94,74278.3,26.81,9.07,8.19,0,*40
1500544922.94,188,20.94,74274.3,26.85,8.69,7.91,0,*4D
1500544924.16,189,20.94,74276.5,26.89,8.89,8.13,0,*4B
1500544925.38,190,20.94,74272.5,26.95,9.53,8.61,0,*4D
1500544926.58,191,20.94,74274.3,27.03,8.79,7.83,0,*48
1500544927.8,192,20.88,74272.0,27.05,8.15,7.11,0,*4C
1500544929.04,193,20.88,74272.3,27.09,8.89,7.87,0,*4B
1500544930.24,194,20.88,74274.0,27.15,8.41,7.33,0,*4A
1500544931.45,195,20.94,74276.3,27.19,8.29,7.19,0,*41
1500544932.64,196,20.94,74272.0,27.19,8.47,7.45,0,*43
1500544933.84,197,20.94,74272.8,27.23,8.05,6.91,0,*45
1500544935.08,198,20.94,74274.3,27.25,7.15,5.89,0,*48
1500544936.29,199,20.94,74276.3,27.25,7.05,5.81,0,*40
1500544937.48,200,20.94,74274.8,27.27,7.45,6.17,0,*49
1500544938.67,201,20.94,74274.3,27.29,8.19,6.93,0,*4C
1500544939.87,202,20.88,74270.8,27.33,10.19,8.83,0,*72
1500544941.07,203,20.88,74272.8,27.41,10.75,9.47,0,*75
1500544942.29,204,20.94,74274.0,27.45,10.41,9.19,0,*7A
1500544943.5,205,20.94,74272.3,27.49,8.89,7.65,0,*4F
1500544944.69,206,20.88,74272.3,27.53,9.67,8.29,0,*41
1500544945.94,207,20.94,74274.0,27.59,9.89,8.47,0,*42
1500544947.15,208,20.94,74272.3,27.63,8.97,7.55,0,*46
1500544948.34,209,20.88,74274.3,27.65,8.29,6.93,0,*4F
1500544949.55,210,20.94,74272.5,27.65,6.57,5.07,0,*4E
1500544950.77,211,20.94,74274.8,27.67,7.23,5.71,0,*4E
1500544951.99,212,20.94,74272.8,27.67,8.01,6.65,0,*44
1500544953.16,213,20.94,74274.5,27.69,8.23,6.93,0,*42
1500544954.41,214,20.94,74274.3,27.71,6.39,4.97,0,*4F
1500544955.61,215,20.94,74274.5,27.69,6.13,4.81,0,*48
1500544956.83,216,20.88,74272.5,27.71,7.09,5.55,0,*40
1500544958.04,217,20.94,74274.5,27.71,7.41,6.13,0,*4C
1500544959.25,218,20.94,74276.0,27.71,7.97,6.69,0,*45
1500544960.45,219,20.88,74272.8,27.73,7.27,5.99,0,*41
1500544961.67,220,20.94,74272.5,27.73,5.89,4.63,0,*49
1500544962.86,221,20.88,74274.0,27.73,5.77,4.49,0,*41
1500544964.04,222,20.94,74272.0,27.73,5.55,4.19,0,*47
1500544965.27,223,20.94,74272.5,27.71,6.35,5.19,0,*40
1500544966.46,224,20.94,74274.8,27.71,8.09,6.79,0,*43
1500544967.7,225,20.94,74274.5,27.71,7.27,5.93,0,*46
1500544968.91,226,20.94,74274.8,27.73,5.77,4.59,0,*47
1500544970.1,227,20.94,74276.0,27.71,5.71,4.53,0,*48
1500544971.32,228,20.94,74274.0,27.71,5.55,4.41,0,*42
1500544972.51,229,20.94,74274.0,27.69,4.85,3.67,0,*45
1500544973.71,230,20.94,74276.0,27.69,4.27,3.03,0,*47
1500544974.91,231,20.94,74274.8,27.65,4.27,3.11,0,*49
1500544976.13,232,20.94,74272.3,27.63,4.67,3.55,0,*48
1500544977.34,233,20.94,74272.8,27.63,4.67,3.59,0,*45
1500544978.54,234,20.94,74276.3,27.61,3.89,2.81,0,*43
1500544979.78,235,20.94,74272.5,27.59,3.19,2.21,0,*4A
1500544981.03,236,20.94,74274.0,27.55,3.23,2.17,0,*49
1500544982.22,237,20.94,74274.3,27.51,4.81,3.89,0,*45
1500544983.42,238,20.94,74272.5,27.53,4.05,2.99,0,*44
1500544984.61,239,20.94,74276.0,27.51,5.19,4.11,0,*4D
1500544985.81,240,20.94,74274.0,27.51,5.67,4.53,0,*4C
1500544987.05,241,20.94,74274.5,27.51,6.73,5.85,0,*41
1500544988.21,242,20.94,74274.0,27.53,7.97,7.05,0,*41
1500544989.41,243,20.94,74276.8,27.55,8.19,7.37,0,*4E
1500544990.63,244,20.94,74274.5,27.63,8.97,8.05,0,*44
1500544991.86,245,20.94,74278.8,27.67,9.15,8.27,0,*4A
1500544993.07,246,20.94,74274.8,27.71,8.45,7.61,0,*47
1500544994.27,247,20.94,74272.3,27.73,9.39,8.65,0,*45
1500544995.49,248,20.94,74274.0,27.79,9.71,8.93,0,*45
1500544996.69,249,20.94,74272.3,27.85,9.21,8.29,0,*43
1500544997.91,250,20.94,74276.0,27.91,8.27,7.61,0,*4A
1500544999.11,251,20.94,74276.3,27.93,9.85,9.07,0,*4E
1500545000.3,252,20.94,74278.0,27.97,9.95,9.29,0,*44
1500545001.52,253,20.94,74274.3,28.05,9.77,9.25,0,*41
1500545002.75,254,20.94,74276.3,28.11,8.55,7.95,0,*47
1500545003.92,255,20.94,74274.0,28.11,9.75,9.07,0,*40
1500545005.14,256,20.94,74278.0,28.17,10.99,10.43,0,*47
1500545006.36,257,20.94,74276.3,28.23,10.57,9.85,0,*71
1500545007.59,258,20.94,74274.3,28.31,10.09,9.53,0,*7D
1500545008.76,259,20.94,74272.5,28.33,9.29,8.79,0,*4D
1500545009.93,260,20.94,74272.5,28.37,9.75,9.25,0,*42
1500545011.16,261,20.94,74276.3,28.43,9.81,9.29,0,*47
1500545012.38,262,20.94,74272.8,28.51,9.67,9.15,0,*40
1500545013.6,263,20.94,74278.3,28.55,9.19,8.61,0,*4E
1500545014.81,264,20.94,74272.8,28.55,9.19,8.83,0,*45
1500545016.0,265,20.94,74276.3,28.61,9.63,9.25,0,*43
1500545017.2,266,20.94,74278.5,28.63,9.99,9.57,0,*42
1500545018.39,267,20.94,74274.0,28.67,9.15,8.79,0,*4E
1500545019.55,268,20.94,74276.5,28.75,8.45,8.05,0,*4D
1500545020.78,269,20.94,74272.5,28.75,8.89,8.55,0,*49
1500545021.98,270,20.94,74272.5,28.79,10.17,9.85,0,*7F
1500545023.14,271,20.94,74276.8,28.83,9.75,9.47,0,*49
1500545024.37,272,20.94,74272.5,28.85,10.65,10.47,0,*4D
1500545025.6,273,20.94,74276.0,28.95,10.85,10.57,0,*42
1500545026.83,274,20.94,74274.0,28.99,9.71,9.49,0,*4D
1500545028.05,275,20.94,74278.5,29.03,9.21,8.89,0,*46
1500545029.25,276,20.94,74274.0,29.05,8.93,8.61,0,*4D
1500545030.46,277,20.94,74276.5,29.09,9.71,9.49,0,*46
1500545031.65,278,20.94,74274.8,29.11,9.63,9.47,0,*4D
1500545032.88,279,20.94,74272.5,29.19,10.51,10.31,0,*44
1500545034.05,280,20.94,74272.5,29.21,9.99,9.99,0,*4F
1500545035.3,281,20.94,74272.5,29.25,9.15,8.93,0,*45
1500545036.5,282,20.94,74274.8,29.27,9.49,9.03,0,*45
1500545037.7,283,20.94,74274.5,29.33,9.75,9.75,0,*4F
1500545038.92,284,20.94,74274.3,29.37,9.19,9.07,0,*43
1500545040.14,285,20.94,74272.0,29.37,9.07,9.01,0,*4B
1500545041.33,286,20.94,74272.8,29.43,8.71,8.69,0,*44
1500545042.52,287,20.94,74272.3,29.47,7.77,7.59,0,*44
1500545043.71,288,20.94,74274.5,29.47,7.47,7.37,0,*40
1500545044.96,289,20.94,74272.5,29.49,7.77,7.69,0,*47
1500545046.17,290,20.94,74272.5,29.51,8.59,8.41,0,*40
1500545047.39,291,20.94,74278.0,29.53,8.97,9.03,0,*46
1500545048.61,292,20.94,74274.0,29.55,9.89,9.89,0,*4F
1500545049.81,293,20.94,74272.0,29.59,10.47,10.55,0,*41
1500545051.01,294,20.94,74272.8,29.67,9.95,9.99,0,*44
1500545052.19,295,20.94,74272.5,29.73,9.99,10.05,0,*71
1500545053.38,296,20.94,74272.8,29.73,8.75,8.79,0,*43
1500545054.57,297,20.94,74272.8,29.79,8.09,8.09,0,*44
1500545055.73,298,20.94,74274.8,29.81,8.01,8.09,0,*44
1500545056.92,299,20.94,74274.3,29.81,7.79,7.91,0,*4B
1500545058.15,300,20.94,74274.0,29.79,7.23,7.29,0,*41
1500545059.36,301,20.94,74274.0,29.81,7.11,7.15,0,*49
1500545060.61,302,20.94,74272.3,29.87,6.51,6.65,0,*4F
1500545061.83,303,20.94,74274.8,29.89,7.59,7.69,0,*44
1500545063.07,304,20.94,74274.0,29.89,6.53,6.53,0,*40
1500545064.29,305,20.94,74272.3,29.91,6.53,6.43,0,*49
1500545065.54,306,20.94,74274.0,29.89,4.63,4.63,0,*42
1500545066.76,307,20.94,74276.5,29.89,5.85,5.67,0,*4F
1500545068.0,308,20.94,74274.5,29.89,6.57,6.73,0,*4A
1500545069.17,309,20.94,74272.8,29.91,7.41,7.45,0,*40
1500545070.42,310,20.94,74274.0,29.93,7.83,7.77,0,*45
1500545071.6,311,20.94,74276.3,29.97,7.45,7.33,0,*4A
1500545072.82,312,20.94,74276.0,29.97,7.45,7.23,0,*48
1500545073.99,313,20.94,74274.8,29.99,7.55,7.41,0,*42
1500545075.2,314,20.94,74274.8,30.03,6.17,5.93,0,*44
1500545076.36,315,20.94,74272.3,30.03,5.63,5.37,0,*4B
1500545077.54,316,20.94,74272.0,30.03,6.53,6.29,0,*44
1500545078.75,317,20.94,74272.0,30.05,6.21,5.99,0,*4E
1500545079.94,318,20.94,74274.3,30.05,3.55,3.29,0,*4A
1500545081.18,319,20.94,74274.5,30.05,5.27,4.97,0,*4A
1500545082.38,320,20.94,74274.0,30.05,5.41,5.15,0,*4B
1500545083.63,321,20.94,74274.8,30.05,6.47,6.13,0,*4A
1500545084.85,322,20.94,74274.5,30.09,5.89,5.49,0,*48
1500545086.03,323,20.94,74274.0,30.11,5.27,4.81,0,*41
1500545087.22,324,20.94,74278.0,30.11,6.61,6.21,0,*4F
1500545088.44,325,20.94,74274.8,30.11,6.87,6.51,0,*41
1500545089.63,326,20.94,74276.8,30.17,7.41,7.05,0,*4F
1500545090.85,327,20.94,74274.3,30.17,6.51,6.21,0,*49
1500545092.08,328,20.94,74276.0,30.21,6.73,6.33,0,*40
1500545093.28,329,20.94,74272.8,30.23,7.27,6.75,0,*41
1500545094.44,330,20.94,74276.3,30.31,7.33,6.97,0,*43
1500545095.67,331,20.94,74274.0,30.33,6.33,5.85,0,*41
1500545096.87,332,20.94,74276.3,30.31,5.63,5.01,0,*4A
1500545098.11,333,20.94,74278.0,30.33,6.39,5.73,0,*40
1500545099.31,334,20.94,74276.3,30.35,6.13,5.63,0,*48
1500545100.56,335,20.94,74278.5,30.37,6.13,5.55,0,*4E
1500545101.75,336,20.94,74278.5,30.39,5.37,4.79,0,*49
1500545102.97,337,20.94,74274.0,30.41,7.05,6.43,0,*4F
1500545104.19,338,20.94,74274.8,30.45,6.93,6.35,0,*4B
1500545105.38,339,20.94,74274.3,30.45,6.93,6.29,0,*47
1500545106.58,340,20.94,74276.0,30.47,7.59,6.91,0,*4F
1500545107.8,341,20.94,74276.3,30.55,6.75,6.13,0,*48
1500545109.04,342,20.94,74272.5,30.55,7.73,7.15,0,*4B
1500545110.24,343,20.94,74276.5,30.57,6.53,5.95,0,*41
1500545111.46,344,20.94,74274.0,30.61,6.57,5.89,0,*4A
1500545112.63,345,20.94,74276.8,30.61,5.95,5.29,0,*4C
1500545113.85,346,20.94,74272.3,30.65,6.61,5.93,0,*42
1500545115.01,347,20.94,74276.5,30.69,6.11,5.37,0,*46
1500545116.22,348,20.94,74276.8,30.69,3.75,2.61,0,*4A
1500545117.46,349,20.94,74278.0,30.67,2.73,1.85,0,*4B
1500545118.7,350,20.94,74276.5,30.67,3.33,2.59,0,*44
1500545119.95,351,20.94,74272.3,30.67,3.75,2.85,0,*46
1500545121.16,352,20.94,74272.8,30.67,3.85,2.85,0,*4A
1500545122.38,353,20.94,74276.3,30.67,4.85,4.01,0,*46
1500545123.56,354,20.94,74274.8,30.67,4.49,3.63,0,*42
1500545124.78,355,20.94,74272.8,30.67,4.11,3.07,0,*4C
1500545125.98,356,20.94,74278.0,30.69,3.89,2.85,0,*4C
1500545127.16,357,20.94,74276.5,30.69,3.97,2.91,0,*47
1500545128.35,358,20.94,74274.5,30.69,1.79,0.67,0,*71
1500545129.56,359,20.94,74274.5,30.67,1.59,0.43,0,*7A
1500545130.81,360,20.94,74272.5,30.67,3.03,2.13,0,*4A
1500545132.03,361,20.94,74276.0,30.67,2.95,1.85,0,*49
1500545133.28,362,20.94,74278.0,30.67,3.75,2.59,0,*47
1500545134.47,363,20.94,74274.8,30.65,2.81,1.83,0,*4A
1500545135.71,364,20.94,74278.8,30.67,1.47,0.33,0,*7C
1500545136.89,365,20.94,74278.3,30.65,2.35,1.29,0,*43
1500545138.08,366,20.94,74276.3,30.65,3.63,2.69,0,*45
1500545139.29,367,20.94,74278.0,30.65,3.15,2.21,0,*49
1500545140.46,368,20.94,74278.5,30.65,3.93,2.99,0,*4B
1500545141.68,369,20.94,74278.0,30.65,3.11,2.09,0,*49
1500545142.84,370,20.94,74278.8,30.65,2.91,1.83,0,*49
1500545144.06,371,20.94,74276.0,30.65,3.41,2.39,0,*46
1500545145.27,372,20.94,74274.0,30.65,2.55,1.67,0,*49
1500545146.52,373,20.94,74276.8,30.67,3.45,2.51,0,*4C
1500545147.68,374,20.94,74274.8,30.69,4.49,3.63,0,*4E
1500545148.86,375,20.94,74274.0,30.69,4.45,3.53,0,*40
1500545150.05,376,20.94,74274.0,30.73,4.93,3.85,0,*48
1500545151.21,377,20.94,74272.3,30.73,3.81,2.91,0,*49
1500545152.4,378,20.94,74272.8,30.73,3.97,2.91,0,*41
1500545153.59,379,20.94,74272.3,30.79,5.19,4.19,0,*4C
1500545154.78,380,20.94,74274.8,30.79,5.63,4.53,0,*49
1500545156.0,381,20.94,74274.0,30.83,4.23,3.15,0,*4D
1500545157.25,382,20.94,74276.3,30.85,3.67,2.59,0,*46
1500545158.45,383,20.94,74272.5,30.87,4.93,3.81,0,*4D
1500545159.64,384,20.94,74276.3,30.89,4.11,2.99,0,*46
1500545160.84,385,20.94,74272.8,30.89,3.93,2.95,0,*46
1500545162.03,386,20.94,74274.3,30.91,4.57,3.33,0,*4E
1500545163.25,387,20.94,74278.5,30.91,3.49,2.39,0,*4C
1500545164.5,388,20.94,74276.8,30.93,3.15,1.85,0,*4C
1500545165.74,389,20.94,74276.0,30.93,3.41,2.05,0,*47
1500545166.99,390,20.94,74278.3,30.93,3.97,2.59,0,*4D
1500545168.2,391,20.94,74274.5,30.95,2.39,0.83,0,*7A
1500545169.41,392,20.94,74278.0,30.99,1.55,-0.15,0,*5E
1500545170.62,393,20.94,74274.3,30.93,0.41,-1.25,0,*53
1500545171.84,394,20.94,74274.8,30.93,1.13,-0.07,0,*63
1500545173.09,395,20.94,74276.3,30.93,2.59,0.91,0,*7D
1500545174.31,396,20.94,74276.3,30.93,3.15,1.41,0,*4B
1500545175.5,397,20.94,74276.3,30.95,2.17,0.43,0,*7C
1500545176.72,398,20.94,74276.8,30.93,2.35,0.55,0,*72
1500545177.94,399,20.94,74274.8,30.95,2.47,0.59,0,*7C
1500545179.14,400,20.94,74272.8,30.95,0.83,-1.21,0,*52
1500545180.36,401,21.0,74276.5,30.95,1.17,-0.89,0,*5C
1500545181.59,402,20.94,74278.5,30.95,1.17,-0.93,0,*54
1500545182.8,403,20.94,74276.8,30.95,2.25,0.29,0,*7B
1500545184.0,404,20.94,74276.5,30.95,1.63,-0.29,0,*50
1500545185.21,405,20.94,74278.0,30.93,0.29,-1.79,0,*5C
1500545186.43,406,20.94,74278.0,30.95,0.29,-1.83,0,*5C
1500545187.63,407,20.94,74274.8,30.95,1.43,-0.77,0,*5A
1500545188.82,408,20.94,74276.0,30.95,2.27,0.17,0,*7F
1500545190.04,409,20.94,74276.5,30.95,3.23,1.13,0,*4E
1500545191.27,410,20.94,74278.5,31.01,2.85,0.47,0,*77
1500545192.49,411,20.94,74276.5,31.01,0.87,-1.51,0,*5D
1500545193.71,412,20.94,74278.3,31.01,1.55,-0.77,0,*55
1500545194.93,413,20.94,74278.8,31.01,1.47,-0.77,0,*57
1500545196.17,414,20.94,74276.0,31.01,1.43,-0.97,0,*5A
1500545197.42,415,20.94,74276.3,31.01,1.21,-1.05,0,*65
1500545198.62,416,21.0,74278.0,31.03,0.79,-1.55,0,*5D
1500545199.83,417,20.94,74278.5,31.03,-0.11,-2.55,0,*7C
1500545201.02,418,20.94,74272.5,31.03,0.67,-1.75,0,*5E
1500545202.25,419,20.94,74276.8,31.03,1.33,-1.01,0,*6C
1500545203.49,420,20.94,74276.3,31.05,1.55,-0.89,0,*51
1500545204.71,421,20.94,74278.0,31.05,2.21,-0.15,0,*55
1500545205.93,422,20.94,74278.5,31.05,1.29,-1.29,0,*63
1500545207.14,423,20.94,74274.0,31.09,2.05,-0.65,0,*5A
1500545208.37,424,21.0,74276.8,31.09,2.17,-0.33,0,*5D
1500545209.58,425,21.0,74276.0,31.13,1.97,-0.53,0,*5A
1500545210.81,426,20.94,74276.3,31.11,1.13,-1.35,0,*66
1500545212.05,427,20.94,74274.5,31.13,0.55,-2.03,0,*50
1500545213.27,428,20.94,74272.0,31.13,-0.81,-3.43,0,*7E
1500545214.43,429,20.94,74274.5,31.11,-0.61,-3.19,0,*7C
1500545215.61,430,20.94,74276.0,31.13,0.05,-2.43,0,*67
1500545216.82,431,20.94,74276.0,31.13,1.89,-0.57,0,*54
1500545218.03,432,20.94,74272.0,31.13,1.67,-0.81,0,*5C
1500545219.23,433,21.0,74276.8,31.17,2.01,-0.41,0,*56
1500545220.43,434,21.0,74278.5,31.17,2.55,0.25,0,*7F
1500545221.65,435,20.94,74272.8,31.21,2.17,-0.27,0,*52
1500545222.84,436,20.94,74276.3,31.25,2.47,0.09,0,*41
1500545224.05,437,20.94,74272.8,31.27,2.51,0.09,0,*45
1500545225.25,438,20.94,74274.8,31.29,1.43,-1.13,0,*63
1500545226.49,439,21.0,74274.0,31.31,0.55,-1.95,0,*53
1500545227.69,440,20.94,74272.5,31.31,0.13,-2.43,0,*57
1500545228.86,441,20.94,74272.8,31.29,-1.75,-4.41,0,*47
1500545230.05,442,20.94,74272.8,31.27,-1.25,-3.87,0,*42
1500545231.3,443,20.94,74274.5,31.27,-1.35,-4.01,0,*4B
1500545232.5,444,21.0,74276.3,31.27,-1.33,-3.87,0,*43
1500545233.75,445,21.0,74274.3,31.27,-0.27,-2.71,0,*7E
1500545234.95,446,21.0,74274.0,31.25,1.29,-1.29,0,*63
1500545236.15,447,21.0,74274.5,31.29,0.59,-1.95,0,*5F
1500545237.36,448,21.0,74274.3,31.29,0.59,-2.07,0,*58
1500545238.56,449,20.94,74274.3,31.29,0.17,-2.47,0,*57
1500545239.77,450,21.0,74274.3,31.31,0.05,-2.55,0,*66
1500545240.96,451,20.94,74272.8,31.31,2.31,-0.19,0,*58
1500545242.2,452,21.0,74276.0,31.35,1.85,-0.85,0,*56
1500545243.4,453,20.94,74274.8,31.37,2.13,-0.41,0,*51
1500545244.65,454,20.94,74272.5,31.39,1.29,-1.35,0,*60
1500545245.85,455,21.0,74272.3,31.41,1.33,-1.33,0,*63
1500545247.05,456,21.0,74276.5,31.45,1.21,-1.63,0,*62
1500545248.24,457,21.0,74274.5,31.45,-0.73,-3.63,0,*7A
1500545249.41,458,21.0,74272.8,31.41,-0.15,-2.95,0,*79
1500545250.6,459,21.0,74274.3,31.45,-0.65,-3.51,0,*72
1500545251.81,460,21.0,74278.5,31.41,0.83,-1.91,0,*57
1500545253.0,461,21.0,74274.3,31.45,2.43,-0.33,0,*55
1500545254.2,462,20.94,74272.8,31.49,2.69,-0.11,0,*52
1500545255.43,463,21.0,74276.5,31.51,2.17,-0.65,0,*50
1500545256.63,464,21.0,74278.3,31.53,2.21,-0.61,0,*54
1500545257.8,465,21.0,74272.5,31.53,2.27,-0.61,0,*53
1500545259.03,466,21.0,74276.3,31.55,1.85,-1.25,0,*6C
1500545260.26,467,21.0,74276.8,31.57,1.51,-1.91,0,*69
1500545261.47,468,21.0,74272.8,31.61,1.29,-1.75,0,*66
1500545262.72,469,21.0,74274.8,31.59,2.09,-0.93,0,*54
1500545263.97,470,21.0,74276.3,31.63,2.05,-1.01,0,*63
1500545265.22,471,21.0,74272.3,31.67,3.11,0.29,0,*74
1500545266.42,472,21.0,74274.8,31.67,2.95,0.09,0,*48
1500545267.67,473,21.0,74274.8,31.71,3.71,0.83,0,*77
1500545268.84,474,21.0,74274.5,31.73,2.31,-0.69,0,*5E
1500545270.04,475,20.94,74274.3,31.77,2.51,-0.53,0,*54
1500545271.26,476,21.0,74272.5,31.79,3.63,0.71,0,*74
1500545272.49,477,20.94,74274.5,31.81,3.03,-0.11,0,*5F
1500545273.68,478,21.0,74272.8,31.83,0.41,-2.79,0,*5B
1500545274.9,479,21.0,74274.0,31.83,0.63,-2.59,0,*58
1500545276.06,480,21.0,74274.5,31.83,0.01,-3.31,0,*65
1500545277.25,481,21.0,74276.5,31.83,0.17,-3.23,0,*50
1500545278.47,482,21.0,74276.0,31.81,0.29,-2.95,0,*50
1500545279.68,483,21.0,74278.5,31.83,0.87,-2.35,0,*5D
1500545280.88,484,21.0,74274.3,31.83,1.63,-1.79,0,*6A
1500545282.13,485,21.0,74276.0,31.83,1.29,-2.07,0,*6F
1500545283.38,486,21.0,74272.0,31.89,2.17,-1.13,0,*6E
1500545284.58,487,21.0,74272.5,31.89,1.79,-1.51,0,*62
1500545285.78,488,21.0,74274.3,31.91,2.55,-0.73,0,*58
1500545287.03,489,21.0,74278.8,31.93,1.51,-1.91,0,*61
1500545288.24,490,21.0,74274.0,31.93,0.97,-2.31,0,*5B
1500545289.44,491,21.0,74272.8,31.95,1.41,-1.83,0,*6C
1500545290.64,492,21.0,74272.0,31.97,0.37,-3.23,0,*55
1500545291.83,493,21.0,74278.3,31.95,0.09,-3.55,0,*6A
1500545293.04,494,21.0,74274.0,31.97,0.25,-3.27,0,*54
1500545294.27,495,21.0,74276.0,31.97,-0.97,-4.37,0,*77
1500545295.48,496,21.0,74278.5,31.97,-0.03,-3.63,0,*4F
1500545296.72,497,21.0,74276.3,31.95,-1.05,-4.69,0,*46
1500545297.95,498,21.0,74272.5,31.95,0.71,-2.75,0,*5D
1500545299.18,499,21.0,74278.3,31.97,0.41,-3.47,0,*5D
1500545300.43,500,21.0,74278.8,31.97,-1.13,-4.81,0,*4A
1500545301.64,501,21.0,74272.0,31.95,-2.19,-5.89,0,*49
1500545302.88,502,21.0,74272.8,31.93,-1.55,-5.27,0,*43
1500545304.09,503,21.0,74276.0,31.93,-1.67,-5.35,0,*40
1500545305.32,504,21.0,74276.8,31.91,-2.47,-6.23,0,*40
1500545306.53,505,21.0,74278.8,31.91,-2.23,-5.81,0,*48
1500545307.75,506,21.0,74274.0,31.89,-1.51,-5.19,0,*45
1500545308.98,507,21.0,74276.0,31.89,-1.01,-4.49,0,*45
1500545310.21,508,21.0,74272.8,31.89,-0.89,-4.53,0,*70
1500545311.45,509,21.0,74274.3,31.89,-0.23,-3.51,0,*74
1500545312.66,510,21.0,74272.5,31.91,-1.25,-4.81,0,*48
1500545313.85,511,21.0,74274.5,31.91,-2.95,-6.47,0,*49
1500545315.08,512,21.0,74276.8,31.89,-2.63,-6.09,0,*40
1500545316.31,513,21.0,74276.0,31.89,-1.63,-5.27,0,*4D
1500545317.54,514,21.0,74274.8,31.85,-2.55,-6.09,0,*4F
1500545318.81,515,21.0,74278.5,31.85,-2.51,-5.85,0,*4D
1500545320.02,516,21.0,74272.0,31.83,-2.15,-5.65,0,*46
1500545321.25,517,21.0,74276.8,31.83,-1.47,-4.77,0,*41
1500545322.43,518,21.0,74280.3,31.83,-2.83,-6.13,0,*45
1500545323.62,519,21.0,74276.0,31.83,-3.07,-6.47,0,*48
1500545324.8,520,21.0,74278.0,31.83,-2.91,-6.13,0,*4D
1500545326.01,521,21.0,74274.8,31.83,-1.55,-4.89,0,*46
1500545327.2,522,21.0,74278.8,31.83,-0.73,-3.91,0,*7E
1500545328.38,523,21.0,74272.8,31.83,-0.73,-3.95,0,*7B
1500545329.6,524,21.0,74274.8,31.89,-0.37,-3.63,0,*7F
1500545330.84,525,21.0,74274.0,31.85,-2.15,-5.31,0,*41
1500545332.09,526,21.0,74276.5,31.85,-3.55,-6.93,0,*4C
1500545333.36,527,21.0,74276.8,31.85,-2.51,-5.61,0,*46